Dewpoint
64 64 64 64 63 62 62 62 63 62 62 61 60 60 59 58 57 57 55 54 54 52 51 50 48 48 47 46 45 47 47 48 48 48 48 47 48 47 46 44 43 45 46 46 46 46 46 43 43 44 44 45 46 46 46 42 44 50 44 41 42 41 40 38 38 38 40 42 42 40 38 39 33 33 31 32 32 31 36 32 34 33 32 34 35
64 64 64 64 63 63 62 63 63 61 61 60 60 59 58 57 57 55 54 54 53 51 49 50 49 48 45 44 45 44 46 46 46 47 45 47 47 45 46 43 43 44 45 43 45 47 46 43 43 45 45 43 43 41 40 40 35 35 38 41 39 41 39 40 39 39 37 39 40 39 37 37 34 33 32 32 32 33 31 30 30 30 32 34 35
63 63 63 64 63 63 63 63 62 61 61 60 59 57 57 57 56 55 54 53 53 50 50 49 48 45 44 45 43 44 44 45 48 47 47 44 42 45 46 45 44 44 45 43 43 45 45 45 44 45 46 43 43 44 45 43 41 38 40 38 39 40 40 40 40 39 37 37 39 36 37 38 38 33 30 31 33 33 31 29 29 30 33 34 35
63 63 63 63 63 63 62 62 61 60 60 59 58 57 56 56 55 54 53 52 50 51 50 47 47 45 45 43 43 43 44 46 46 45 43 42 42 43 44 45 45 44 43 41 42 44 45 45 45 45 45 44 42 44 44 44 46 40 39 39 39 38 41 42 41 39 38 37 38 34 37 37 37 33 31 32 32 33 30 31 31 32 34 34 34
62 62 63 63 63 62 62 61 60 60 59 58 57 57 56 55 54 52 52 51 50 50 49 47 47 45 46 42 42 43 44 44 44 44 45 46 44 44 42 42 44 43 43 44 45 45 45 46 44 45 44 43 43 43 43 43 41 41 38 37 38 41 42 42 41 40 38 36 37 38 39 36 38 37 34 31 34 31 30 31 31 34 35 35 36
62 63 62 62 62 62 61 61 60 59 58 57 57 56 56 54 54 53 51 49 50 49 47 46 44 43 42 41 41 42 43 43 43 41 41 44 44 43 43 44 43 42 43 43 44 46 46 44 45 44 43 43 43 42 42 42 42 40 39 38 36 38 41 40 40 39 38 36 36 37 38 37 35 37 33 33 33 32 30 31 33 35 35 35 35
63 62 62 62 62 61 60 60 59 59 58 57 56 55 54 54 53 52 51 50 49 48 47 46 47 44 43 43 42 42 41 42 42 43 42 42 42 42 44 45 45 44 43 43 44 46 45 44 44 44 43 42 42 41 41 41 44 40 41 40 38 39 40 39 37 37 38 36 35 37 36 37 36 34 32 34 33 32 31 32 33 34 35 35 36
62 61 62 62 61 60 60 59 59 58 57 56 55 55 54 54 52 51 50 49 49 47 46 46 46 45 43 43 43 43 42 41 41 42 41 43 43 43 43 44 42 43 45 44 46 46 45 43 42 39 37 36 39 38 38 39 42 40 39 40 39 39 39 38 37 35 35 35 35 35 36 36 35 35 35 34 31 30 33 34 33 34 35 35 35
62 61 61 61 60 59 59 59 58 57 56 55 55 54 53 53 52 51 50 50 50 47 46 46 45 43 43 45 43 43 42 42 42 43 43 42 44 42 42 41 42 42 42 43 44 44 42 39 35 34 36 33 35 35 35 36 40 40 39 38 38 38 37 37 35 36 34 34 36 37 35 34 34 33 32 32 30 30 32 34 34 34 34 35 35
61 61 61 61 60 59 58 59 58 56 55 55 54 53 53 53 52 51 50 49 49 48 46 46 45 44 43 43 43 44 44 43 46 45 45 43 43 40 44 43 41 42 42 43 44 43 39 36 37 32 31 29 31 39 36 39 39 39 39 38 37 37 36 35 34 34 34 33 35 35 34 33 33 32 33 33 32 32 33 34 33 33 33 34 35
61 61 61 60 59 59 58 59 57 56 55 54 53 52 52 53 52 50 50 49 49 48 47 46 45 45 43 43 44 44 43 41 41 39 39 42 44 45 44 44 42 42 43 43 43 41 36 32 37 35 36 34 40 39 34 34 34 35 36 40 43 40 36 35 34 35 34 34 36 35 34 32 32 32 32 30 32 33 33 33 33 33 32 33 32
60 60 60 59 58 58 58 58 56 55 54 53 52 52 53 52 51 50 50 50 49 49 48 46 45 47 46 44 45 45 45 43 38 38 39 39 44 46 46 44 44 43 42 41 43 39 36 36 37 42 41 39 37 38 39 38 36 37 36 36 36 36 38 39 36 34 35 34 34 35 34 32 31 32 32 32 33 33 34 33 31 31 32 33 33
60 59 59 58 58 58 57 56 55 54 53 53 53 53 52 51 50 50 50 50 49 49 47 48 46 47 47 44 45 46 45 39 38 38 38 38 38 45 44 44 43 44 43 43 42 40 37 38 39 44 43 44 43 34 34 35 38 37 38 38 38 36 33 33 35 39 37 36 35 35 35 34 33 33 35 35 36 34 34 32 31 32 32 33 32
59 58 58 58 57 57 56 55 54 53 53 54 53 52 51 50 51 50 50 49 48 48 48 49 47 48 47 46 46 46 42 39 38 38 38 37 37 42 48 45 46 44 43 43 43 43 43 43 42 41 40 40 41 41 39 37 35 36 37 36 34 37 38 35 35 35 38 38 37 36 38 38 37 37 39 39 37 36 34 33 33 33 34 33 34
59 58 58 57 57 56 55 54 53 53 53 53 52 51 51 52 51 50 49 48 47 48 47 48 47 49 48 48 47 46 42 38 37 37 37 37 37 39 47 49 46 46 45 46 46 44 44 44 42 41 37 38 43 42 38 38 42 44 42 38 36 37 39 38 37 36 38 39 39 39 39 40 40 40 40 40 39 38 37 36 35 35 36 35 33
59 59 58 57 56 55 54 53 53 53 52 52 52 51 51 51 50 49 49 48 48 48 48 48 48 50 50 49 48 45 41 37 37 37 37 37 37 45 46 48 46 46 45 47 48 47 46 45 44 43 43 38 40 34 37 38 38 40 42 42 43 43 43 43 41 40 42 41 40 39 38 39 40 40 39 38 38 37 38 37 37 37 34 32 30
59 59 58 56 55 55 54 54 53 52 52 52 52 51 51 51 50 49 48 48 48 48 47 48 48 50 49 49 47 44 41 39 37 37 37 37 39 45 48 45 46 47 46 47 46 47 45 44 46 44 43 35 35 31 35 37 37 38 40 42 44 42 42 43 38 36 36 37 37 36 36 35 36 36 36 36 36 38 37 38 35 34 33 30 31
59 58 57 56 56 56 55 53 53 52 52 52 52 52 52 50 49 49 48 48 47 47 49 51 50 49 48 49 48 45 43 40 37 37 37 37 42 47 47 47 47 46 46 46 44 45 42 50 46 45 43 34 33 32 33 39 37 38 41 42 42 42 42 42 42 43 40 38 37 36 36 36 36 37 37 37 37 38 40 35 35 35 33 32 30
57 57 56 56 56 55 54 53 53 52 52 52 52 51 51 50 49 50 50 49 50 50 48 47 46 48 50 50 49 45 44 41 37 37 37 37 41 45 43 42 44 44 44 44 43 44 45 46 49 43 43 34 31 33 33 37 38 38 40 42 41 41 39 37 37 37 37 37 38 39 41 43 45 43 43 39 36 41 39 38 37 36 33 32 32
57 57 56 55 55 55 54 53 52 52 51 51 51 51 50 50 50 50 49 48 47 47 49 48 48 48 48 48 49 47 44 41 40 36 36 37 38 42 42 42 42 43 43 43 41 43 45 42 39 33 31 31 32 34 33 33 35 38 38 39 41 40 34 34 36 38 36 37 38 39 40 42 42 41 40 39 41 41 37 38 38 39 35 33 33
57 56 56 55 53 53 53 53 52 52 52 51 51 50 50 49 49 48 47 46 47 49 47 46 45 45 47 48 48 47 44 41 40 36 37 37 37 38 39 40 43 43 46 44 41 41 41 39 36 33 31 32 33 33 33 34 35 38 37 38 38 37 35 35 35 38 35 37 37 40 40 36 37 37 37 36 36 37 38 37 39 38 36 35 33
57 56 55 54 52 52 53 53 52 52 51 51 49 48 48 48 47 47 45 45 46 46 46 44 44 45 45 46 46 46 49 44 41 37 36 37 36 36 38 38 45 42 41 41 40 38 41 37 35 33 32 32 34 33 33 34 35 39 36 35 34 34 35 36 35 33 34 36 35 35 35 34 34 36 36 36 36 37 37 37 36 36 36 36 36
56 55 54 53 52 52 52 52 52 51 50 49 48 47 47 46 46 46 46 45 44 43 43 44 42 42 44 43 44 46 46 44 39 39 37 36 36 36 36 37 37 43 42 40 41 41 42 39 37 35 32 32 33 33 34 34 35 34 34 34 34 33 35 34 32 33 34 35 36 36 36 35 35 34 35 35 35 36 37 36 36 35 35 37 36
55 54 53 53 52 52 52 52 52 51 50 49 48 48 48 48 47 46 45 44 43 41 43 42 40 41 42 41 41 45 45 44 39 38 38 36 36 36 36 36 36 38 39 41 41 37 34 40 37 33 32 32 32 33 34 34 33 33 33 34 33 34 33 33 32 34 34 35 35 36 34 33 35 35 35 36 36 38 39 37 36 34 35 36 35
52 51 51 51 51 50 50 50 50 50 50 49 48 48 47 47 45 44 44 44 42 40 41 38 41 42 41 42 42 44 45 44 41 39 37 37 36 36 35 35 35 35 36 38 38 37 33 34 33 32 32 32 33 33 34 34 34 34 33 33 35 33 33 32 33 34 35 35 33 34 33 33 33 35 37 38 39 39 37 38 37 36 36 35 35
52 51 51 51 50 49 49 49 49 49 48 48 48 48 47 47 46 45 44 43 41 40 37 35 36 37 39 40 42 42 42 45 43 41 39 38 37 36 36 35 36 35 36 38 33 33 34 33 32 32 33 33 35 33 34 36 34 34 33 34 35 32 31 32 33 35 35 32 33 33 33 33 34 34 37 39 38 34 34 35 35 34 34 33 31
52 52 51 51 50 49 48 48 48 48 48 47 47 47 46 45 44 43 42 41 40 42 42 41 41 41 44 41 40 39 39 42 43 41 39 38 38 38 36 36 36 35 35 36 35 35 33 34 32 33 33 33 34 36 36 37 38 38 37 37 35 33 34 33 34 36 35 34 35 35 33 33 34 35 36 35 36 34 34 34 34 34 34 32 31
52 51 51 50 49 49 48 43 45 47 47 46 45 45 45 45 44 44 44 41 40 40 39 40 41 41 38 36 36 36 36 41 41 40 39 38 37 36 35 37 35 36 35 38 37 38 37 34 35 35 39 37 36 38 37 37 35 32 33 33 35 36 37 36 36 35 35 35 36 36 35 36 35 33 33 34 34 34 33 34 35 34 34 32 30
52 51 50 49 49 48 48 47 46 46 46 46 46 45 44 44 45 43 43 43 42 40 38 37 37 36 33 32 32 34 35 40 41 39 39 37 36 37 38 39 36 34 35 34 36 40 39 34 33 35 34 33 32 34 33 33 33 32 35 34 33 32 33 32 34 35 35 33 35 35 32 32 33 33 33 33 35 33 33 34 35 35 34 34 31
51 50 50 49 48 47 47 47 46 46 46 45 45 46 41 41 43 43 42 40 38 37 37 38 37 35 34 35 38 39 41 41 39 37 36 35 35 36 35 34 34 34 33 33 35 37 38 36 35 33 33 32 31 30 31 31 33 32 32 32 32 32 34 35 33 33 35 35 34 31 33 33 32 33 33 32 33 34 33 33 34 34 34 32 30
50 50 49 48 47 47 47 47 46 46 46 45 45 43 43 41 35 34 37 39 37 36 35 34 34 33 39 41 42 36 36 37 36 36 35 35 34 34 33 33 33 32 32 31 31 33 33 33 33 34 31 31 30 30 31 32 32 32 32 33 35 36 33 37 35 33 32 31 33 35 33 31 33 34 32 32 33 32 33 33 33 34 33 33 30
50 49 49 48 47 47 47 47 47 46 45 45 44 43 42 42 40 35 35 37 36 35 34 34 34 34 35 37 40 38 35 35 35 34 34 33 33 33 32 32 32 32 32 31 29 30 33 33 33 33 33 32 31 32 33 34 33 32 32 31 29 29 30 29 31 33 31 31 31 30 31 32 32 30 31 32 30 32 33 32 33 32 32 32 32
50 49 48 47 47 46 46 47 47 47 46 46 46 46 44 42 40 38 36 34 34 34 34 34 33 33 34 35 35 35 34 34 34 34 33 32 32 32 33 33 33 33 33 30 28 29 31 34 34 33 32 31 33 34 33 34 32 31 32 32 31 33 33 32 30 35 32 33 31 30 31 31 31 31 31 30 30 30 31 31 32 31 32 31 30
50 49 48 47 47 48 47 47 47 47 47 46 46 45 44 43 41 39 36 35 35 34 34 33 33 34 35 35 34 34 34 34 34 33 33 32 32 33 33 33 33 33 32 30 30 30 30 31 31 30 29 31 31 31 31 30 31 32 34 35 35 34 33 36 37 35 32 32 32 31 31 31 31 31 30 29 31 32 31 30 31 30 30 30 30
50 43 40 43 48 47 47 47 47 47 46 45 45 43 44 42 41 39 40 36 36 34 36 34 36 34 36 36 34 34 34 34 34 34 33 33 33 33 32 32 31 31 33 34 32 31 30 30 29 29 30 30 30 31 33 36 34 34 33 32 32 32 31 31 32 35 34 35 35 33 31 32 33 29 28 29 30 30 30 30 30 31 30 30 30
49 48 48 48 47 47 47 47 47 47 46 45 45 43 42 42 41 40 39 37 36 36 37 36 38 36 36 36 35 34 34 34 34 34 34 33 33 32 31 31 30 31 30 30 30 30 30 29 28 28 28 28 30 29 30 31 33 32 31 32 30 32 32 32 31 31 35 34 32 30 32 32 32 30 30 31 32 32 31 31 29 29 29 30 28
51 50 49 48 48 48 48 48 47 47 43 43 44 44 43 43 41 40 38 38 38 37 40 37 35 35 35 37 36 35 34 34 34 34 34 33 33 32 32 31 30 30 29 29 29 28 27 26 26 25 25 25 26 27 29 30 28 28 29 27 28 30 33 33 31 30 30 29 30 31 31 30 30 30 29 29 29 29 30 29 29 29 28 29 29
50 50 49 49 49 49 48 47 47 40 44 44 44 43 42 43 41 40 39 40 38 38 38 36 35 33 32 34 38 37 35 35 35 35 34 34 32 32 31 31 31 30 30 30 30 28 26 25 26 25 24 26 30 32 30 29 28 27 30 28 30 31 32 30 29 32 31 30 30 30 30 29 30 29 29 27 27 28 28 28 28 28 28 29 29
50 44 41 41 43 48 47 46 44 45 45 45 44 43 41 42 42 42 42 41 40 42 40 41 38 38 33 36 36 37 35 35 35 33 34 33 33 33 33 34 34 33 34 34 34 33 33 32 31 29 28 28 29 29 28 27 26 25 28 31 31 31 31 30 31 31 30 30 29 29 29 28 28 28 28 29 28 28 28 28 27 28 28 28 28
47 47 43 41 45 44 47 44 44 44 43 44 44 43 42 42 42 42 42 42 42 41 41 41 37 37 35 36 34 35 34 34 34 34 34 34 34 34 35 36 36 36 35 36 36 35 35 34 34 34 33 33 32 31 29 27 28 27 29 29 28 29 31 31 30 29 29 29 28 28 28 29 29 29 28 27 27 27 27 27 28 28 28 28 29
47 47 43 43 43 46 44 44 44 45 45 43 44 43 43 42 42 41 42 42 41 40 40 40 39 40 38 34 34 33 32 32 32 33 34 34 34 35 35 36 36 36 36 36 36 37 37 36 35 34 34 33 33 32 31 29 29 29 28 29 29 29 30 31 31 30 30 29 29 28 28 28 28 28 27 28 30 29 28 28 28 28 29 28 28
46 46 46 45 45 46 46 44 44 45 44 44 45 44 42 42 42 43 41 41 39 39 41 40 41 40 38 35 34 33 32 32 32 32 33 34 34 34 34 35 36 37 37 37 37 37 37 36 36 36 35 34 33 32 31 33 30 28 28 28 29 29 29 29 29 30 30 29 29 29 28 28 28 28 28 30 28 28 28 29 29 29 29 29 29
47 45 46 45 46 46 45 45 45 45 45 44 44 41 42 43 42 42 41 40 40 40 40 40 40 40 38 34 34 33 35 36 33 33 33 34 34 33 33 33 35 36 36 36 36 37 37 36 36 36 34 34 36 31 28 28 28 28 30 30 30 30 30 30 30 30 30 30 30 29 29 28 28 28 28 28 28 28 29 29 29 28 29 29 29
45 45 45 44 45 45 45 45 44 45 45 43 43 43 42 43 43 42 42 41 41 40 40 40 40 40 37 35 34 34 35 36 35 35 34 34 34 34 33 33 34 35 36 36 36 37 36 36 35 35 36 35 37 38 32 29 28 28 28 28 28 29 30 31 31 31 31 30 30 30 29 29 29 29 29 29 29 28 28 29 29 29 29 29 29
46 45 45 45 45 46 45 45 44 45 44 42 44 44 43 43 43 42 41 42 39 40 39 39 38 38 35 36 36 35 36 36 34 33 33 34 35 35 35 34 34 35 35 35 36 37 36 35 35 34 34 35 36 36 35 34 33 29 29 28 28 27 29 30 31 31 31 31 30 30 29 28 28 28 28 28 29 28 28 28 28 29 29 29 29
45 44 44 44 45 44 44 45 43 45 44 43 44 43 42 43 42 42 41 41 40 40 40 39 39 39 36 36 37 36 36 35 33 31 31 33 35 36 36 35 35 35 35 34 35 37 36 36 35 35 34 34 35 35 34 35 33 31 31 31 32 32 32 33 34 33 32 32 31 30 30 29 29 29 29 28 28 28 29 29 29 29 29 29 30
48 45 44 44 44 44 44 45 44 44 43 43 43 43 42 42 42 41 39 41 41 39 40 40 39 38 37 36 36 35 35 34 33 32 32 33 35 36 36 36 36 35 35 35 36 36 36 36 35 35 35 35 35 36 35 33 31 30 30 30 31 35 37 35 35 36 35 34 33 32 31 30 29 29 30 30 30 30 29 30 30 30 30 30 30
49 46 45 44 44 44 44 45 44 41 43 42 43 43 41 41 41 41 40 40 40 39 39 39 39 38 37 37 36 36 35 35 34 34 33 32 32 34 37 37 36 35 35 35 36 35 35 35 36 36 35 35 35 35 36 35 33 32 31 29 30 32 33 32 34 36 37 36 34 33 33 31 30 30 31 32 31 31 31 30 31 30 30 30 30
48 46 44 45 44 44 44 44 42 43 43 44 43 43 42 42 42 42 43 41 40 39 39 39 39 39 40 38 37 37 36 35 36 36 36 35 36 37 38 38 36 37 36 36 36 37 37 36 36 36 36 36 36 36 35 35 34 34 34 33 31 31 31 31 34 37 34 34 34 35 35 35 34 33 33 33 32 32 32 32 31 31 31 31 31
47 46 45 44 44 45 44 44 44 44 43 44 43 43 43 43 42 42 41 41 41 41 40 41 41 42 42 39 37 37 37 36 36 37 36 37 36 37 36 37 37 36 35 35 35 35 36 37 38 37 36 36 36 36 35 34 34 33 33 33 33 32 32 32 32 32 33 33 34 34 35 34 34 33 32 32 32 32 33 32 32 32 32 32 31
46 46 45 45 44 44 44 45 45 45 44 44 45 45 43 44 42 42 42 42 41 42 41 41 40 40 40 39 38 39 38 38 37 36 36 36 37 37 36 36 36 36 36 36 36 36 37 36 36 36 35 34 34 35 35 34 34 34 35 33 32 32 32 32 33 31 31 32 32 32 32 32 32 32 32 32 32 33 33 32 32 31 31 31 31